STARLINK-33726, 63437

Orbit data source: Space-Track

STARLINK-33726, 63437 is a payload satellite owned by SpaceX/Seattle (US) in LEO that was launched on Fri, 04 Apr 2025 UTC via an FALCON 9 launch vehicle from the Air Force Western Test Range (AFWTR). Payload-class satellites include a variety of spacecraft equipped with specific instruments for various scientific and technological missions. These include communications satellites like Starlink; space stations such as the ISS; scientific satellites like the Hubble; Earth observation satellites from companies like Planet Labs, Umbra, and HawkEye 360; GPS; miniature CubeSats for education and research; and military/defense satellites.

Loading next visibility...
Identifier
63437, 2025-069E
Orbit
LEO
Country
Flag of USUS
Related business
Manufacturer
SpaceX/Seattle
Mission
Operational Commercial Communications
Bus & Motor
STARLINK V2MO, Unknown motor
Mass
575 kg wet, ~530 kg dry
Launch date (UTC)
2025-04-04 (1 year ago)
Launch vehicle
FALCON 9
Launch site
Air Force Western Test Range (AFWTR)
Object type
Payload
Rocket body
Debris
Shape & HBR
Box + 2 Pan, 17.7 m
Radar Cross Section
36.964 m², Large (>1 m²)

Expand to show TLE details & history
Last TLE update: 12 hours ago

TLE from 12 hours ago
0 STARLINK-33726
1 63437U 25069E   26145.26137289  .00031724  00000-0  73490-3 0  9994
2 63437  53.1584 144.2943 0001420  90.5504 269.5665 15.42181903 65114
Epoch: 2026-05-25T06:16Z
TLE epoch observation values (Epoch: 2026-05-25T06:16:22.617Z)
Latitude
-0.00001°
Longitude
167.34836°
Altitude
440.583 km
Speed
7.649 km/s
True Right ascension
09h 37m 10s
True Declination
0° 00' 00"
Sunlit
Object was in daylight at epoch
Visualization orbit readout
Latitude
Unknown
Longitude
Unknown
Altitude
Unknown
Speed
Unknown
Apparent Right ascension
Unknown
Apparent Declination
Unknown
Sunlit
N/A
Visualization observer readout
Local Sidereal Time
03:51:01
Azimuth
Unknown
Elevation
Unknown
Doppler factor
Unknown
Orbital elements
Apogee altitude
440.897 km
Perigee altitude
438.961 km
Semi-major axis
6,818.066 km
Eccentricity
0.00014
Inclination
53.1584°
RAAN
144.2943°
Arg. of periapsis
90.5504°
True anomaly
269.55023°
Mean anomaly
269.5665°
Eccentric anomaly
269.55836°
Mean motion
3.85524 °/min
Orbital period
93.38 mins
BSTAR
0.0007349
Loading maneuver chart data...
Computing Atmospheric mass density...
Loading historical data...
Loading historical data...
Loading historical data...
Loading historical data...
Loading historical data...
Loading historical data...
Loading historical data...

Documentation

Showing up to 5 results
|